owner,sensor,date,latitude,longitude,vertical_datum,mass_concentration_of_oxygen_in_sea_water,qcFlag 
SCCF RECON,ioos:station:SCCF:13:1,2011-07-01T00:00:00Z,26.5255,-82.0032,2.116,5.15,1111122 
SCCF RECON,ioos:station:SCCF:13:1,2011-07-01T01:00:00Z,26.5255,-82.0032,2.073,4.79,1111122 
SCCF RECON,ioos:station:SCCF:13:1,2011-07-01T02:00:00Z,26.5255,-82.0032,2.137,4.65,1111122 
SCCF RECON,ioos:station:SCCF:13:1,2011-07-01T03:00:00Z,26.5255,-82.0032,2.218,4.65,1111122 
SCCF RECON,ioos:station:SCCF:13:1,2011-07-01T04:00:00Z,26.5255,-82.0032,2.29,4.76,1111122 
SCCF RECON,ioos:station:SCCF:13:1,2011-07-01T05:00:00Z,26.5255,-82.0032,2.384,4.06,1111122 
SCCF RECON,ioos:station:SCCF:13:1,2011-07-01T06:00:00Z,26.5255,-82.0032,2.436,4.29,1111122 
SCCF RECON,ioos:station:SCCF:13:1,2011-07-01T07:00:00Z,26.5255,-82.0032,2.43,4.52,1111122 
SCCF RECON,ioos:station:SCCF:13:1,2011-07-01T08:00:00Z,26.5255,-82.0032,2.41,4.65,1111122 
SCCF RECON,ioos:station:SCCF:13:1,2011-07-01T09:00:00Z,26.5255,-82.0032,2.37,4.46,1111122 
SCCF RECON,ioos:station:SCCF:13:1,2011-07-01T10:00:00Z,26.5255,-82.0032,2.355,4.49,1111122 
SCCF RECON,ioos:station:SCCF:13:1,2011-07-01T11:00:00Z,26.5255,-82.0032,2.34,4.06,1111122 
SCCF RECON,ioos:station:SCCF:13:1,2011-07-01T12:00:00Z,26.5255,-82.0032,2.324,3.59,1111122 
SCCF RECON,ioos:station:SCCF:13:1,2011-07-01T13:00:00Z,26.5255,-82.0032,2.364,3.84,1111122 
SCCF RECON,ioos:station:SCCF:13:1,2011-07-01T14:00:00Z,26.5255,-82.0032,2.45,3.41,1111122 
SCCF RECON,ioos:station:SCCF:13:1,2011-07-01T15:00:00Z,26.5255,-82.0032,2.56,4.21,1111122 
SCCF RECON,ioos:station:SCCF:13:1,2011-07-01T16:00:00Z,26.5255,-82.0032,2.636,5.07,1111122 
SCCF RECON,ioos:station:SCCF:13:1,2011-07-01T17:00:00Z,26.5255,-82.0032,2.68,5.47,1111122 
SCCF RECON,ioos:station:SCCF:13:1,2011-07-01T18:00:00Z,26.5255,-82.0032,2.705,5.67,1111122 
SCCF RECON,ioos:station:SCCF:13:1,2011-07-01T19:00:00Z,26.5255,-82.0032,2.679,5.95,1111122 
SCCF RECON,ioos:station:SCCF:13:1,2011-07-01T20:00:00Z,26.5255,-82.0032,2.551,6.12,1111122 
SCCF RECON,ioos:station:SCCF:13:1,2011-07-01T21:00:00Z,26.5255,-82.0032,2.418,6.14,1111122 
SCCF RECON,ioos:station:SCCF:13:1,2011-07-01T22:00:00Z,26.5255,-82.0032,2.329,6.14,1111122 
SCCF RECON,ioos:station:SCCF:13:1,2011-07-01T23:00:00Z,26.5255,-82.0032,2.247,6.39,1111122 
SCCF RECON,ioos:station:SCCF:13:1,2011-07-02T00:00:00Z,26.5255,-82.0032,2.167,6.14,1111122 
SCCF RECON,ioos:station:SCCF:13:1,2011-07-02T01:00:00Z,26.5255,-82.0032,2.094,6.0,1111122 
SCCF RECON,ioos:station:SCCF:13:1,2011-07-02T02:00:00Z,26.5255,-82.0032,2.042,5.54,1111122 
SCCF RECON,ioos:station:SCCF:13:1,2011-07-02T03:00:00Z,26.5255,-82.0032,2.144,5.37,1111122 
SCCF RECON,ioos:station:SCCF:13:1,2011-07-02T04:00:00Z,26.5255,-82.0032,2.286,5.33,1111122 
SCCF RECON,ioos:station:SCCF:13:1,2011-07-02T05:00:00Z,26.5255,-82.0032,2.38,4.53,1111122 
SCCF RECON,ioos:station:SCCF:13:1,2011-07-02T06:00:00Z,26.5255,-82.0032,2.439,4.85,1111122 
SCCF RECON,ioos:station:SCCF:13:1,2011-07-02T07:00:00Z,26.5255,-82.0032,2.464,5.35,1111122 
SCCF RECON,ioos:station:SCCF:13:1,2011-07-02T08:00:00Z,26.5255,-82.0032,2.45,5.37,1111122 
SCCF RECON,ioos:station:SCCF:13:1,2011-07-02T09:00:00Z,26.5255,-82.0032,2.4,5.14,1111122 
SCCF RECON,ioos:station:SCCF:13:1,2011-07-02T10:00:00Z,26.5255,-82.0032,2.38,4.99,1111122 
SCCF RECON,ioos:station:SCCF:13:1,2011-07-02T11:00:00Z,26.5255,-82.0032,2.381,4.63,1111122 
SCCF RECON,ioos:station:SCCF:13:1,2011-07-02T12:00:00Z,26.5255,-82.0032,2.37,4.33,1111122 
SCCF RECON,ioos:station:SCCF:13:1,2011-07-02T13:00:00Z,26.5255,-82.0032,2.31,4.17,1111122 
SCCF RECON,ioos:station:SCCF:13:1,2011-07-02T14:00:00Z,26.5255,-82.0032,2.355,4.4,1111122 
SCCF RECON,ioos:station:SCCF:13:1,2011-07-02T15:00:00Z,26.5255,-82.0032,2.478,3.37,1111122 
SCCF RECON,ioos:station:SCCF:13:1,2011-07-02T16:00:00Z,26.5255,-82.0032,2.56,4.15,1111122 
SCCF RECON,ioos:station:SCCF:13:1,2011-07-02T17:00:00Z,26.5255,-82.0032,2.614,4.58,1111122 
SCCF RECON,ioos:station:SCCF:13:1,2011-07-02T18:00:00Z,26.5255,-82.0032,2.65,5.28,1111122 
SCCF RECON,ioos:station:SCCF:13:1,2011-07-02T19:00:00Z,26.5255,-82.0032,2.66,5.26,1111122 
SCCF RECON,ioos:station:SCCF:13:1,2011-07-02T20:00:00Z,26.5255,-82.0032,2.6,5.33,1111122 
SCCF RECON,ioos:station:SCCF:13:1,2011-07-02T21:00:00Z,26.5255,-82.0032,2.48,5.21,1111122 
SCCF RECON,ioos:station:SCCF:13:1,2011-07-02T22:00:00Z,26.5255,-82.0032,2.36,5.17,1111122 
SCCF RECON,ioos:station:SCCF:13:1,2011-07-02T23:00:00Z,26.5255,-82.0032,2.26,5.37,1111122 
SCCF RECON,ioos:station:SCCF:13:1,2011-07-03T00:00:00Z,26.5255,-82.0032,2.17,5.3,1111122 
SCCF RECON,ioos:station:SCCF:13:1,2011-07-03T01:00:00Z,26.5255,-82.0032,2.082,5.16,1111122 
SCCF RECON,ioos:station:SCCF:13:1,2011-07-03T02:00:00Z,26.5255,-82.0032,2.03,4.94,1111122 
SCCF RECON,ioos:station:SCCF:13:1,2011-07-03T03:00:00Z,26.5255,-82.0032,2.08,5.17,1111122 
SCCF RECON,ioos:station:SCCF:13:1,2011-07-03T04:00:00Z,26.5255,-82.0032,2.216,5.1,1111122 
SCCF RECON,ioos:station:SCCF:13:1,2011-07-03T05:00:00Z,26.5255,-82.0032,2.312,4.52,1111122 
SCCF RECON,ioos:station:SCCF:13:1,2011-07-03T06:00:00Z,26.5255,-82.0032,2.383,4.39,1111122 
SCCF RECON,ioos:station:SCCF:13:1,2011-07-03T07:00:00Z,26.5255,-82.0032,2.409,4.6,1111122 
SCCF RECON,ioos:station:SCCF:13:1,2011-07-03T08:00:00Z,26.5255,-82.0032,2.45,4.69,1111122 
SCCF RECON,ioos:station:SCCF:13:1,2011-07-03T09:00:00Z,26.5255,-82.0032,2.47,4.78,1111122 
SCCF RECON,ioos:station:SCCF:13:1,2011-07-03T10:00:00Z,26.5255,-82.0032,2.42,4.77,1111122 
SCCF RECON,ioos:station:SCCF:13:1,2011-07-03T11:00:00Z,26.5255,-82.0032,2.369,4.64,1111122 
SCCF RECON,ioos:station:SCCF:13:1,2011-07-03T12:00:00Z,26.5255,-82.0032,2.33,4.23,1111122 
SCCF RECON,ioos:station:SCCF:13:1,2011-07-03T13:00:00Z,26.5255,-82.0032,2.291,3.97,1111122 
SCCF RECON,ioos:station:SCCF:13:1,2011-07-03T14:00:00Z,26.5255,-82.0032,2.3,4.33,1111122 
SCCF RECON,ioos:station:SCCF:13:1,2011-07-03T15:00:00Z,26.5255,-82.0032,2.41,4.43,1111122 
SCCF RECON,ioos:station:SCCF:13:1,2011-07-03T16:00:00Z,26.5255,-82.0032,2.51,4.87,1111122 
SCCF RECON,ioos:station:SCCF:13:1,2011-07-03T17:00:00Z,26.5255,-82.0032,2.589,5.0,1111122 
SCCF RECON,ioos:station:SCCF:13:1,2011-07-03T18:00:00Z,26.5255,-82.0032,2.656,5.4,1111122 
SCCF RECON,ioos:station:SCCF:13:1,2011-07-03T19:00:00Z,26.5255,-82.0032,2.691,5.64,1111122 
SCCF RECON,ioos:station:SCCF:13:1,2011-07-03T20:00:00Z,26.5255,-82.0032,2.685,5.88,1111122 
SCCF RECON,ioos:station:SCCF:13:1,2011-07-03T21:00:00Z,26.5255,-82.0032,2.592,5.96,1111122 
SCCF RECON,ioos:station:SCCF:13:1,2011-07-03T22:00:00Z,26.5255,-82.0032,2.486,5.76,1111122 
SCCF RECON,ioos:station:SCCF:13:1,2011-07-03T23:00:00Z,26.5255,-82.0032,2.38,5.39,1111122 
SCCF RECON,ioos:station:SCCF:13:1,2011-07-04T00:00:00Z,26.5255,-82.0032,2.308,5.56,1111122 
SCCF RECON,ioos:station:SCCF:13:1,2011-07-04T01:00:00Z,26.5255,-82.0032,2.195,5.51,1111122 
SCCF RECON,ioos:station:SCCF:13:1,2011-07-04T02:00:00Z,26.5255,-82.0032,2.12,5.45,1111122 
SCCF RECON,ioos:station:SCCF:13:1,2011-07-04T03:00:00Z,26.5255,-82.0032,2.08,5.36,1111122 
SCCF RECON,ioos:station:SCCF:13:1,2011-07-04T04:00:00Z,26.5255,-82.0032,2.138,5.22,1111122 
SCCF RECON,ioos:station:SCCF:13:1,2011-07-04T05:00:00Z,26.5255,-82.0032,2.289,5.09,1111122 
SCCF RECON,ioos:station:SCCF:13:1,2011-07-04T06:00:00Z,26.5255,-82.0032,2.39,4.77,1111122 
SCCF RECON,ioos:station:SCCF:13:1,2011-07-04T07:00:00Z,26.5255,-82.0032,2.43,4.59,1111122 
SCCF RECON,ioos:station:SCCF:13:1,2011-07-04T08:00:00Z,26.5255,-82.0032,2.478,4.74,1111122 
SCCF RECON,ioos:station:SCCF:13:1,2011-07-04T09:00:00Z,26.5255,-82.0032,2.509,4.65,1111122 
SCCF RECON,ioos:station:SCCF:13:1,2011-07-04T10:00:00Z,26.5255,-82.0032,2.49,4.76,1111122 
SCCF RECON,ioos:station:SCCF:13:1,2011-07-04T11:00:00Z,26.5255,-82.0032,2.413,4.62,1111122 
SCCF RECON,ioos:station:SCCF:13:1,2011-07-04T12:00:00Z,26.5255,-82.0032,2.36,4.29,1111122 
SCCF RECON,ioos:station:SCCF:13:1,2011-07-04T13:00:00Z,26.5255,-82.0032,2.319,4.16,1111122 
SCCF RECON,ioos:station:SCCF:13:1,2011-07-04T14:00:00Z,26.5255,-82.0032,2.29,4.48,1111122 
SCCF RECON,ioos:station:SCCF:13:1,2011-07-04T15:00:00Z,26.5255,-82.0032,2.321,4.68,1111122 
SCCF RECON,ioos:station:SCCF:13:1,2011-07-04T16:00:00Z,26.5255,-82.0032,2.423,4.58,1111122 
SCCF RECON,ioos:station:SCCF:13:1,2011-07-04T17:00:00Z,26.5255,-82.0032,2.528,5.18,1111122 
SCCF RECON,ioos:station:SCCF:13:1,2011-07-04T18:00:00Z,26.5255,-82.0032,2.59,4.82,1111122 
SCCF RECON,ioos:station:SCCF:13:1,2011-07-04T19:00:00Z,26.5255,-82.0032,2.628,5.6,1111122 
SCCF RECON,ioos:station:SCCF:13:1,2011-07-04T20:00:00Z,26.5255,-82.0032,2.64,6.38,1111122 
SCCF RECON,ioos:station:SCCF:13:1,2011-07-04T21:00:00Z,26.5255,-82.0032,2.625,6.4,1111122 
SCCF RECON,ioos:station:SCCF:13:1,2011-07-04T22:00:00Z,26.5255,-82.0032,2.573,6.3,1111122 
SCCF RECON,ioos:station:SCCF:13:1,2011-07-04T23:00:00Z,26.5255,-82.0032,2.44,5.97,1111122 
SCCF RECON,ioos:station:SCCF:13:1,2011-07-05T00:00:00Z,26.5255,-82.0032,2.33,5.77,1111122 
SCCF RECON,ioos:station:SCCF:13:1,2011-07-05T01:00:00Z,26.5255,-82.0032,2.251,5.72,1111122 
SCCF RECON,ioos:station:SCCF:13:1,2011-07-05T02:00:00Z,26.5255,-82.0032,2.166,5.74,1111122 
SCCF RECON,ioos:station:SCCF:13:1,2011-07-05T03:00:00Z,26.5255,-82.0032,2.1,5.66,1111122 
SCCF RECON,ioos:station:SCCF:13:1,2011-07-05T04:00:00Z,26.5255,-82.0032,2.1,5.49,1111122 
SCCF RECON,ioos:station:SCCF:13:1,2011-07-05T05:00:00Z,26.5255,-82.0032,2.229,5.4,1111122 
SCCF RECON,ioos:station:SCCF:13:1,2011-07-05T06:00:00Z,26.5255,-82.0032,2.34,5.31,1111122 
SCCF RECON,ioos:station:SCCF:13:1,2011-07-05T07:00:00Z,26.5255,-82.0032,2.396,4.85,1111122 
SCCF RECON,ioos:station:SCCF:13:1,2011-07-05T08:00:00Z,26.5255,-82.0032,2.456,4.94,1111122 
SCCF RECON,ioos:station:SCCF:13:1,2011-07-05T09:00:00Z,26.5255,-82.0032,2.509,4.91,1111122 
SCCF RECON,ioos:station:SCCF:13:1,2011-07-05T10:00:00Z,26.5255,-82.0032,2.51,5.04,1111122 
SCCF RECON,ioos:station:SCCF:13:1,2011-07-05T11:00:00Z,26.5255,-82.0032,2.441,4.92,1111122 
SCCF RECON,ioos:station:SCCF:13:1,2011-07-05T12:00:00Z,26.5255,-82.0032,2.35,4.66,1111122 
SCCF RECON,ioos:station:SCCF:13:1,2011-07-05T13:00:00Z,26.5255,-82.0032,2.29,4.52,1111122 
SCCF RECON,ioos:station:SCCF:13:1,2011-07-05T14:00:00Z,26.5255,-82.0032,2.258,4.82,1111122 
SCCF RECON,ioos:station:SCCF:13:1,2011-07-05T15:00:00Z,26.5255,-82.0032,2.236,5.03,1111122 
SCCF RECON,ioos:station:SCCF:13:1,2011-07-05T16:00:00Z,26.5255,-82.0032,2.275,5.18,1111122 
SCCF RECON,ioos:station:SCCF:13:1,2011-07-05T17:00:00Z,26.5255,-82.0032,2.387,4.98,1111122 
SCCF RECON,ioos:station:SCCF:13:1,2011-07-05T18:00:00Z,26.5255,-82.0032,2.49,5.41,1111122 
SCCF RECON,ioos:station:SCCF:13:1,2011-07-05T19:00:00Z,26.5255,-82.0032,2.543,6.04,1111122 
SCCF RECON,ioos:station:SCCF:13:1,2011-07-05T20:00:00Z,26.5255,-82.0032,2.58,6.36,1111122 
SCCF RECON,ioos:station:SCCF:13:1,2011-07-05T21:00:00Z,26.5255,-82.0032,2.602,7.13,1111122 
SCCF RECON,ioos:station:SCCF:13:1,2011-07-05T22:00:00Z,26.5255,-82.0032,2.599,6.72,1111122 
SCCF RECON,ioos:station:SCCF:13:1,2011-07-05T23:00:00Z,26.5255,-82.0032,2.53,6.68,1111122 
SCCF RECON,ioos:station:SCCF:13:1,2011-07-06T00:00:00Z,26.5255,-82.0032,2.43,6.41,1111122 
SCCF RECON,ioos:station:SCCF:13:1,2011-07-06T01:00:00Z,26.5255,-82.0032,2.33,6.17,1111122 
SCCF RECON,ioos:station:SCCF:13:1,2011-07-06T02:00:00Z,26.5255,-82.0032,2.25,6.33,1111122 
SCCF RECON,ioos:station:SCCF:13:1,2011-07-06T03:00:00Z,26.5255,-82.0032,2.188,6.0,1111122 
SCCF RECON,ioos:station:SCCF:13:1,2011-07-06T04:00:00Z,26.5255,-82.0032,2.13,6.29,1111122 
SCCF RECON,ioos:station:SCCF:13:1,2011-07-06T05:00:00Z,26.5255,-82.0032,2.16,6.14,1111122 
SCCF RECON,ioos:station:SCCF:13:1,2011-07-06T06:00:00Z,26.5255,-82.0032,2.294,6.0,1111122 
SCCF RECON,ioos:station:SCCF:13:1,2011-07-06T07:00:00Z,26.5255,-82.0032,2.39,5.19,1111122 
SCCF RECON,ioos:station:SCCF:13:1,2011-07-06T08:00:00Z,26.5255,-82.0032,2.45,5.22,1111122 
SCCF RECON,ioos:station:SCCF:13:1,2011-07-06T09:00:00Z,26.5255,-82.0032,2.513,5.26,1111122 
SCCF RECON,ioos:station:SCCF:13:1,2011-07-06T10:00:00Z,26.5255,-82.0032,2.55,5.24,1111122 
SCCF RECON,ioos:station:SCCF:13:1,2011-07-06T11:00:00Z,26.5255,-82.0032,2.542,5.13,1111122 
SCCF RECON,ioos:station:SCCF:13:1,2011-07-06T12:00:00Z,26.5255,-82.0032,2.46,4.96,1111122 
SCCF RECON,ioos:station:SCCF:13:1,2011-07-06T13:00:00Z,26.5255,-82.0032,2.396,4.84,1111122 
SCCF RECON,ioos:station:SCCF:13:1,2011-07-06T14:00:00Z,26.5255,-82.0032,2.32,4.8,1111122 
SCCF RECON,ioos:station:SCCF:13:1,2011-07-06T15:00:00Z,26.5255,-82.0032,2.28,5.32,1111122 
SCCF RECON,ioos:station:SCCF:13:1,2011-07-06T16:00:00Z,26.5255,-82.0032,2.249,5.41,1111122 
SCCF RECON,ioos:station:SCCF:13:1,2011-07-06T17:00:00Z,26.5255,-82.0032,2.25,5.59,1111122 
SCCF RECON,ioos:station:SCCF:13:1,2011-07-06T18:00:00Z,26.5255,-82.0032,2.343,5.71,1111122 
SCCF RECON,ioos:station:SCCF:13:1,2011-07-06T19:00:00Z,26.5255,-82.0032,2.452,5.69,1111122 
SCCF RECON,ioos:station:SCCF:13:1,2011-07-06T20:00:00Z,26.5255,-82.0032,2.514,5.29,1111122 
SCCF RECON,ioos:station:SCCF:13:1,2011-07-06T21:00:00Z,26.5255,-82.0032,2.49,5.3,1111122 
SCCF RECON,ioos:station:SCCF:13:1,2011-07-06T22:00:00Z,26.5255,-82.0032,2.524,5.33,1111122 
SCCF RECON,ioos:station:SCCF:13:1,2011-07-06T23:00:00Z,26.5255,-82.0032,2.48,5.7,1111122 
SCCF RECON,ioos:station:SCCF:13:1,2011-07-07T00:00:00Z,26.5255,-82.0032,2.41,5.93,1111122 
SCCF RECON,ioos:station:SCCF:13:1,2011-07-07T01:00:00Z,26.5255,-82.0032,2.33,5.0,1111122 
SCCF RECON,ioos:station:SCCF:13:1,2011-07-07T02:00:00Z,26.5255,-82.0032,2.259,4.84,1111122 
SCCF RECON,ioos:station:SCCF:13:1,2011-07-07T03:00:00Z,26.5255,-82.0032,2.209,4.92,1111122 
SCCF RECON,ioos:station:SCCF:13:1,2011-07-07T04:00:00Z,26.5255,-82.0032,2.17,4.89,1111122 
SCCF RECON,ioos:station:SCCF:13:1,2011-07-07T05:00:00Z,26.5255,-82.0032,2.17,5.03,1111122 
SCCF RECON,ioos:station:SCCF:13:1,2011-07-07T06:00:00Z,26.5255,-82.0032,2.266,4.91,1111122 
SCCF RECON,ioos:station:SCCF:13:1,2011-07-07T07:00:00Z,26.5255,-82.0032,2.38,4.11,1111122 
SCCF RECON,ioos:station:SCCF:13:1,2011-07-07T08:00:00Z,26.5255,-82.0032,2.435,4.13,1111122 
SCCF RECON,ioos:station:SCCF:13:1,2011-07-07T09:00:00Z,26.5255,-82.0032,2.486,4.24,1111122 
SCCF RECON,ioos:station:SCCF:13:1,2011-07-07T10:00:00Z,26.5255,-82.0032,2.56,4.43,1111122 
SCCF RECON,ioos:station:SCCF:13:1,2011-07-07T11:00:00Z,26.5255,-82.0032,2.599,4.49,1111122 
SCCF RECON,ioos:station:SCCF:13:1,2011-07-07T12:00:00Z,26.5255,-82.0032,2.573,4.52,1111122 
SCCF RECON,ioos:station:SCCF:13:1,2011-07-07T13:00:00Z,26.5255,-82.0032,2.519,4.37,1111122 
SCCF RECON,ioos:station:SCCF:13:1,2011-07-07T14:00:00Z,26.5255,-82.0032,2.41,4.14,1111122 
SCCF RECON,ioos:station:SCCF:13:1,2011-07-07T15:00:00Z,26.5255,-82.0032,2.36,4.05,1111122 
SCCF RECON,ioos:station:SCCF:13:1,2011-07-07T16:00:00Z,26.5255,-82.0032,2.28,4.01,1111122 
SCCF RECON,ioos:station:SCCF:13:1,2011-07-07T17:00:00Z,26.5255,-82.0032,2.232,3.97,1111122 
SCCF RECON,ioos:station:SCCF:13:1,2011-07-07T18:00:00Z,26.5255,-82.0032,2.243,4.03,1111122 
SCCF RECON,ioos:station:SCCF:13:1,2011-07-07T19:00:00Z,26.5255,-82.0032,2.32,4.17,1111122 
SCCF RECON,ioos:station:SCCF:13:1,2011-07-07T20:00:00Z,26.5255,-82.0032,2.386,3.23,1111122 
SCCF RECON,ioos:station:SCCF:13:1,2011-07-07T21:00:00Z,26.5255,-82.0032,2.455,4.04,1111122 
SCCF RECON,ioos:station:SCCF:13:1,2011-07-07T22:00:00Z,26.5255,-82.0032,2.557,4.5,1111122 
SCCF RECON,ioos:station:SCCF:13:1,2011-07-07T23:00:00Z,26.5255,-82.0032,2.613,4.91,1111122 
SCCF RECON,ioos:station:SCCF:13:1,2011-07-08T00:00:00Z,26.5255,-82.0032,2.615,5.02,1111122 
SCCF RECON,ioos:station:SCCF:13:1,2011-07-08T01:00:00Z,26.5255,-82.0032,2.6,4.83,1111122 
SCCF RECON,ioos:station:SCCF:13:1,2011-07-08T02:00:00Z,26.5255,-82.0032,2.569,4.74,1111122 
SCCF RECON,ioos:station:SCCF:13:1,2011-07-08T03:00:00Z,26.5255,-82.0032,2.548,4.35,1111122 
SCCF RECON,ioos:station:SCCF:13:1,2011-07-08T04:00:00Z,26.5255,-82.0032,2.497,4.23,1111122 
SCCF RECON,ioos:station:SCCF:13:1,2011-07-08T05:00:00Z,26.5255,-82.0032,2.419,4.3,1111122 
SCCF RECON,ioos:station:SCCF:13:1,2011-07-08T06:00:00Z,26.5255,-82.0032,2.442,4.38,1111122 
SCCF RECON,ioos:station:SCCF:13:1,2011-07-08T07:00:00Z,26.5255,-82.0032,2.452,4.33,1111122 
SCCF RECON,ioos:station:SCCF:13:1,2011-07-08T08:00:00Z,26.5255,-82.0032,2.609,3.93,1111122 
SCCF RECON,ioos:station:SCCF:13:1,2011-07-08T09:00:00Z,26.5255,-82.0032,2.709,4.39,1111122 
SCCF RECON,ioos:station:SCCF:13:1,2011-07-08T10:00:00Z,26.5255,-82.0032,2.748,4.62,1111122 
SCCF RECON,ioos:station:SCCF:13:1,2011-07-08T11:00:00Z,26.5255,-82.0032,2.73,4.71,1111122 
SCCF RECON,ioos:station:SCCF:13:1,2011-07-08T12:00:00Z,26.5255,-82.0032,2.731,4.69,1111122 
SCCF RECON,ioos:station:SCCF:13:1,2011-07-08T13:00:00Z,26.5255,-82.0032,2.7,4.71,1111122 
SCCF RECON,ioos:station:SCCF:13:1,2011-07-08T14:00:00Z,26.5255,-82.0032,2.643,4.49,1111122 
SCCF RECON,ioos:station:SCCF:13:1,2011-07-08T16:00:00Z,26.5255,-82.0032,2.47,4.47,1111122 
SCCF RECON,ioos:station:SCCF:13:1,2011-07-08T17:00:00Z,26.5255,-82.0032,2.388,4.66,1111122 
SCCF RECON,ioos:station:SCCF:13:1,2011-07-08T18:00:00Z,26.5255,-82.0032,2.31,4.64,1111122 
SCCF RECON,ioos:station:SCCF:13:1,2011-07-08T19:00:00Z,26.5255,-82.0032,2.251,4.65,1111122 
SCCF RECON,ioos:station:SCCF:13:1,2011-07-08T20:00:00Z,26.5255,-82.0032,2.271,5.07,1111122 
SCCF RECON,ioos:station:SCCF:13:1,2011-07-08T21:00:00Z,26.5255,-82.0032,2.348,5.41,1111122 
SCCF RECON,ioos:station:SCCF:13:1,2011-07-08T22:00:00Z,26.5255,-82.0032,2.404,4.75,1111122 
SCCF RECON,ioos:station:SCCF:13:1,2011-07-08T23:00:00Z,26.5255,-82.0032,2.44,4.97,1111122 
SCCF RECON,ioos:station:SCCF:13:1,2011-07-09T00:00:00Z,26.5255,-82.0032,2.46,5.14,1111122 
SCCF RECON,ioos:station:SCCF:13:1,2011-07-09T01:00:00Z,26.5255,-82.0032,2.491,5.17,1111122 
SCCF RECON,ioos:station:SCCF:13:1,2011-07-09T02:00:00Z,26.5255,-82.0032,2.47,5.03,1111122 
SCCF RECON,ioos:station:SCCF:13:1,2011-07-09T03:00:00Z,26.5255,-82.0032,2.4,4.89,1111122 
SCCF RECON,ioos:station:SCCF:13:1,2011-07-09T04:00:00Z,26.5255,-82.0032,2.371,4.55,1111122 
SCCF RECON,ioos:station:SCCF:13:1,2011-07-09T05:00:00Z,26.5255,-82.0032,2.362,4.39,1111122 
SCCF RECON,ioos:station:SCCF:13:1,2011-07-09T06:00:00Z,26.5255,-82.0032,2.337,4.6,1111122 
SCCF RECON,ioos:station:SCCF:13:1,2011-07-09T07:00:00Z,26.5255,-82.0032,2.32,4.82,1111122 
SCCF RECON,ioos:station:SCCF:13:1,2011-07-09T08:00:00Z,26.5255,-82.0032,2.377,4.73,1111122 
SCCF RECON,ioos:station:SCCF:13:1,2011-07-09T09:00:00Z,26.5255,-82.0032,2.448,3.99,1111122 
SCCF RECON,ioos:station:SCCF:13:1,2011-07-09T10:00:00Z,26.5255,-82.0032,2.53,4.04,1111122 
SCCF RECON,ioos:station:SCCF:13:1,2011-07-09T11:00:00Z,26.5255,-82.0032,2.579,4.19,1111122 
SCCF RECON,ioos:station:SCCF:13:1,2011-07-09T12:00:00Z,26.5255,-82.0032,2.614,4.59,1111122 
SCCF RECON,ioos:station:SCCF:13:1,2011-07-09T13:00:00Z,26.5255,-82.0032,2.627,4.67,1111122 
SCCF RECON,ioos:station:SCCF:13:1,2011-07-09T14:00:00Z,26.5255,-82.0032,2.57,4.47,1111122 
SCCF RECON,ioos:station:SCCF:13:1,2011-07-09T15:00:00Z,26.5255,-82.0032,2.49,4.21,1111122 
SCCF RECON,ioos:station:SCCF:13:1,2011-07-09T16:00:00Z,26.5255,-82.0032,2.4,4.36,1111122 
SCCF RECON,ioos:station:SCCF:13:1,2011-07-09T17:00:00Z,26.5255,-82.0032,2.32,4.61,1111122 
SCCF RECON,ioos:station:SCCF:13:1,2011-07-09T18:00:00Z,26.5255,-82.0032,2.23,4.88,1111122 
SCCF RECON,ioos:station:SCCF:13:1,2011-07-09T19:00:00Z,26.5255,-82.0032,2.148,4.84,1111122 
SCCF RECON,ioos:station:SCCF:13:1,2011-07-09T20:00:00Z,26.5255,-82.0032,2.085,5.28,1111122 
SCCF RECON,ioos:station:SCCF:13:1,2011-07-09T21:00:00Z,26.5255,-82.0032,2.064,6.06,1111122 
SCCF RECON,ioos:station:SCCF:13:1,2011-07-09T22:00:00Z,26.5255,-82.0032,2.118,6.97,1111122 
SCCF RECON,ioos:station:SCCF:13:1,2011-07-09T23:00:00Z,26.5255,-82.0032,2.2,7.68,1111122 
SCCF RECON,ioos:station:SCCF:13:1,2011-07-10T00:00:00Z,26.5255,-82.0032,2.269,7.12,1111122 
SCCF RECON,ioos:station:SCCF:13:1,2011-07-10T01:00:00Z,26.5255,-82.0032,2.312,6.2,1111122 
SCCF RECON,ioos:station:SCCF:13:1,2011-07-10T02:00:00Z,26.5255,-82.0032,2.36,5.32,1111122 
SCCF RECON,ioos:station:SCCF:13:1,2011-07-10T03:00:00Z,26.5255,-82.0032,2.389,5.22,1111122 
SCCF RECON,ioos:station:SCCF:13:1,2011-07-10T04:00:00Z,26.5255,-82.0032,2.37,5.54,1111122 
SCCF RECON,ioos:station:SCCF:13:1,2011-07-10T05:00:00Z,26.5255,-82.0032,2.333,5.33,1111122 
SCCF RECON,ioos:station:SCCF:13:1,2011-07-10T06:00:00Z,26.5255,-82.0032,2.293,5.46,1111122 
SCCF RECON,ioos:station:SCCF:13:1,2011-07-10T07:00:00Z,26.5255,-82.0032,2.267,5.19,1111122 
SCCF RECON,ioos:station:SCCF:13:1,2011-07-10T08:00:00Z,26.5255,-82.0032,2.31,4.25,1111122 
SCCF RECON,ioos:station:SCCF:13:1,2011-07-10T09:00:00Z,26.5255,-82.0032,2.371,3.38,1111122 
SCCF RECON,ioos:station:SCCF:13:1,2011-07-10T10:00:00Z,26.5255,-82.0032,2.447,4.2,1111122 
SCCF RECON,ioos:station:SCCF:13:1,2011-07-10T11:00:00Z,26.5255,-82.0032,2.5,4.67,1111122 
SCCF RECON,ioos:station:SCCF:13:1,2011-07-10T12:00:00Z,26.5255,-82.0032,2.552,4.86,1111122 
SCCF RECON,ioos:station:SCCF:13:1,2011-07-10T13:00:00Z,26.5255,-82.0032,2.608,4.79,1111122 
SCCF RECON,ioos:station:SCCF:13:1,2011-07-10T14:00:00Z,26.5255,-82.0032,2.631,4.75,1111122 
SCCF RECON,ioos:station:SCCF:13:1,2011-07-10T15:00:00Z,26.5255,-82.0032,2.602,4.77,1111122 
SCCF RECON,ioos:station:SCCF:13:1,2011-07-10T16:00:00Z,26.5255,-82.0032,2.503,4.89,1111122 
SCCF RECON,ioos:station:SCCF:13:1,2011-07-10T17:00:00Z,26.5255,-82.0032,2.383,4.99,1111122 
SCCF RECON,ioos:station:SCCF:13:1,2011-07-10T18:00:00Z,26.5255,-82.0032,2.283,5.45,1111122 
SCCF RECON,ioos:station:SCCF:13:1,2011-07-10T19:00:00Z,26.5255,-82.0032,2.196,5.52,1111122 
SCCF RECON,ioos:station:SCCF:13:1,2011-07-10T20:00:00Z,26.5255,-82.0032,2.101,5.28,1111122 
SCCF RECON,ioos:station:SCCF:13:1,2011-07-10T21:00:00Z,26.5255,-82.0032,2.04,5.37,1111122 
SCCF RECON,ioos:station:SCCF:13:1,2011-07-10T22:00:00Z,26.5255,-82.0032,2.02,5.66,1111122 
SCCF RECON,ioos:station:SCCF:13:1,2011-07-10T23:00:00Z,26.5255,-82.0032,2.085,5.86,1111122 
SCCF RECON,ioos:station:SCCF:13:1,2011-07-11T00:00:00Z,26.5255,-82.0032,2.18,5.67,1111122 
SCCF RECON,ioos:station:SCCF:13:1,2011-07-11T01:00:00Z,26.5255,-82.0032,2.251,5.24,1111122 
SCCF RECON,ioos:station:SCCF:13:1,2011-07-11T02:00:00Z,26.5255,-82.0032,2.304,4.67,1111122 
SCCF RECON,ioos:station:SCCF:13:1,2011-07-11T03:00:00Z,26.5255,-82.0032,2.37,4.93,1111122 
SCCF RECON,ioos:station:SCCF:13:1,2011-07-11T04:00:00Z,26.5255,-82.0032,2.39,5.14,1111122 
SCCF RECON,ioos:station:SCCF:13:1,2011-07-11T05:00:00Z,26.5255,-82.0032,2.376,5.52,1111122 
SCCF RECON,ioos:station:SCCF:13:1,2011-07-11T06:00:00Z,26.5255,-82.0032,2.36,4.94,1111122 
SCCF RECON,ioos:station:SCCF:13:1,2011-07-11T07:00:00Z,26.5255,-82.0032,2.28,5.03,1111122 
SCCF RECON,ioos:station:SCCF:13:1,2011-07-11T08:00:00Z,26.5255,-82.0032,2.24,4.43,1111122 
SCCF RECON,ioos:station:SCCF:13:1,2011-07-11T09:00:00Z,26.5255,-82.0032,2.268,3.99,1111122 
SCCF RECON,ioos:station:SCCF:13:1,2011-07-11T10:00:00Z,26.5255,-82.0032,2.36,3.15,1111122 
SCCF RECON,ioos:station:SCCF:13:1,2011-07-11T11:00:00Z,26.5255,-82.0032,2.45,3.81,1111122 
SCCF RECON,ioos:station:SCCF:13:1,2011-07-11T12:00:00Z,26.5255,-82.0032,2.53,4.65,1111122 
SCCF RECON,ioos:station:SCCF:13:1,2011-07-11T13:00:00Z,26.5255,-82.0032,2.57,5.09,1111122 
SCCF RECON,ioos:station:SCCF:13:1,2011-07-11T14:00:00Z,26.5255,-82.0032,2.612,5.0,1111122 
SCCF RECON,ioos:station:SCCF:13:1,2011-07-11T15:00:00Z,26.5255,-82.0032,2.631,4.99,1111122 
SCCF RECON,ioos:station:SCCF:13:1,2011-07-11T16:00:00Z,26.5255,-82.0032,2.585,5.06,1111122 
SCCF RECON,ioos:station:SCCF:13:1,2011-07-11T17:00:00Z,26.5255,-82.0032,2.47,4.95,1111122 
SCCF RECON,ioos:station:SCCF:13:1,2011-07-11T18:00:00Z,26.5255,-82.0032,2.355,5.06,1111122 
SCCF RECON,ioos:station:SCCF:13:1,2011-07-11T19:00:00Z,26.5255,-82.0032,2.27,5.17,1111122 
SCCF RECON,ioos:station:SCCF:13:1,2011-07-11T20:00:00Z,26.5255,-82.0032,2.18,5.36,1111122 
SCCF RECON,ioos:station:SCCF:13:1,2011-07-11T21:00:00Z,26.5255,-82.0032,2.089,5.22,1111122 